User: anonymous   Login
Location: Chervonnoye
(48.6000°N, 34.4000°E)
Time: 19:30:17
(UTC+00:00)
Language:

NOAA 15 - Orbit

View from above orbital plane
View from above orbital plane
View from above satellite
View from above satellite

Ground track
Ground track

The orbit data is extracted from the following two-line orbital elements,

1 25338U 98030A   21341.52932578  .00000046  00000-0  37783-4 0  9995
2 25338  98.6659   8.3691 0011170 133.3564 226.8549 14.26074393225664
Epoch (UTC): 07 December 2021 12:42:13
Eccentricity: 0.0011170
inclination: 98.6659°
perigee height: 797 km
apogee height: 813 km
right ascension of ascending node: 8.3691°
argument of perigee: 133.3564°
revolutions per day: 14.26074393
mean anomaly at epoch: 226.8549°
orbit number at epoch: 22566

The dashed part of the orbit path shows where the satellite is in the earth's shadow,  

DLR